ATLAS 5 CENTAUR DEB, 55859

Orbit data source: Space-Track

ATLAS 5 CENTAUR DEB, 55859 is space debris in HEO originally from a launch on Wed, 17 Oct 2018 UTC launched from the Air Force Eastern Test Range (AFETR). Debris objects in space refer to the collection of defunct objects orbiting the Earth. Examples of debris include non-operational satellites, rocket bodies, and fragments generated from explosions, collisions, or faulty payload assembly.

Loading next visibility...
Identifier
55859, 2018-079HM
Orbit
HEO
Country
Flag of USUS
Related business
Flag of USUnited Launch Alliance/Lockheed Martin (US)
Manufacturer
ULA Decatur
Mission
Spacecraft
Bus & Motor
Unknown
Mass
Unknown
Launch date (UTC)
2018-10-17 (8 years ago)
Launch vehicle
Unknown
Launch site
Air Force Eastern Test Range (AFETR)
Object type
Payload
Rocket body
Debris
Shape & HBR
Unknown shape, 1.1 m
Radar Cross Section
RCS unknown

Expand to show TLE details & history
Last TLE update: 1 day ago

TLE from 1 day ago
0 ATLAS 5 CENTAUR DEB
1 55859U 18079HM  26125.91344564 -.00000131  00000-0  00000-0 0  9995
2 55859  13.2394  37.4412 4684038 312.4142  16.5285  1.82888291 30352
Epoch: 2026-05-05T21:55Z
TLE epoch observation values (Epoch: 2026-05-05T21:55:21.703Z)
Latitude
0.00001°
Longitude
-155.23981°
Altitude
10,379.473 km
Speed
5.784 km/s
True Right ascension
02h 29m 31s
True Declination
0° 00' 00"
Sunlit
Object was in daylight at epoch
Visualization orbit readout
Latitude
Unknown
Longitude
Unknown
Altitude
Unknown
Speed
Unknown
Apparent Right ascension
Unknown
Apparent Declination
Unknown
Sunlit
N/A
Visualization observer readout
Local Sidereal Time
05:32:55
Azimuth
Unknown
Elevation
Unknown
Doppler factor
Unknown
Orbital elements
Apogee altitude
35,100.299 km
Perigee altitude
8,638.018 km
Semi-major axis
28,247.295 km
Eccentricity
0.4684
Inclination
13.2394°
RAAN
37.4412°
Arg. of periapsis
312.4142°
True anomaly
47.87798°
Mean anomaly
16.5285°
Eccentric anomaly
29.91127°
Mean motion
0.45717 °/min
Orbital period
787.45 mins
BSTAR
0
Loading maneuver chart data...
Computing Atmospheric mass density...

Documentation

Showing up to 5 results
|